Regional Weather Roundup
Issued by NWS Jackson, KY

Home | Current Version | Previous Version | Text Only | Print | Product List | Glossary Off
Versions: 1 2 3 4 5 6 7 8 9 10 11 12 13 14 15 16 17 18 19 20 21 22 23 24 25 26 27 28

000
ASUS43 KJKL 232010
RWRJKL

EAST KENTUCKY HOURLY WEATHER ROUNDUP
NATIONAL WEATHER SERVICE JACKSON KY
400 PM EDT SUN JUL 23 2017

NOTE: "FAIR" INDICATES FEW OR NO CLOUDS BELOW 12,000 FEET WITH
NO SIGNIFICANT WEATHER AND/OR OBSTRUCTIONS TO VISIBILITY.

* THESE REPORTS ARE NOT UNDER NWS QUALITY CONTROL AND MAY NOT
  REPORT WEATHER SUCH AS PRECIPITATION AND FOG.

KYZ079-080-083-085-087-088-110-112-115-119-120-232100
...EASTERN KENTUCKY...

CITY           SKY/WX    TMP DP  RH WIND       PRES   REMARKS
JACKSON        CLOUDY    82  67  60 VRB5      29.87F
LONDON         CLOUDY    87  65  47 S12       29.87F
SOMERSET*      CLOUDY    86  66  51 S7        29.87F
MONTICELLO*    CLOUDY    89  75  63 SW13G22   29.87F HX  99
WILLIAMSBURG*  CLOUDY    88  72  58 SE7       29.87F HX  94
MIDDLESBORO*   MOSUNNY   91  73  56 S7        29.88F HX  99
HARLAN APT*    MOCLDY    86  66  51 CALM      29.91F
PIKE CO APT*     N/A     81  67  61 CALM      29.89F
BIG SANDY APT* CLOUDY    83  66  56 SW7       29.87F
MOREHEAD APT*  CLOUDY    79  68  69 S6        29.87R
ASHLAND*         N/A    N/A N/A N/A MISG        N/A  THUNDER
$$

KYZ035-036-041-042-044-050-067-078-099-232100
...CENTRAL KENTUCKY...

CITY           SKY/WX    TMP DP  RH WIND       PRES   REMARKS
MT STERLING*   CLOUDY    82  70  65 W7        29.86S
FLEMING/MASON* CLOUDY    80  70  70 W6        29.88R
DANVILLE*      PTSUNNY   86  70  58 SW9       29.87F HX  90
LEXINGTON      CLOUDY    85  70  60 SW9G22    29.85R
FRANKFORT      MOSUNNY   83  70  64 W9        29.84S
LOUISVILLE     PTSUNNY   87  72  60 W13       29.85S HX  93
LEBANON*         N/A     86  68  54 S9        29.86F
GLASGOW*       MOSUNNY   88  71  56 SW9       29.86F HX  94
BOWLING GREEN  MOSUNNY   90  72  55 SW9       29.85F HX  97
$$

KYZ091>093-OHZ055-061-077-WVZ005-015-034-035-042-232100
...SOUTHERN OHIO/WEST VIRGINIA...

CITY           SKY/WX    TMP DP  RH WIND       PRES   REMARKS
COVINGTON      MOSUNNY   83  70  64 W8        29.83F
COLUMBUS       CLOUDY    77  70  79 S5        29.79R
DAYTON         CLOUDY    80  73  79 W9        29.81S
WILMINGTON     CLOUDY    80  75  84 SW10      29.81F
HUNTINGTON     CLOUDY    80  69  69 SE5       29.82F
CHARLESTON     PTSUNNY   84  67  56 W5        29.85S
PINEVILLE*     CLOUDY    82  68  61 MISG      29.97S
BECKLEY        PTSUNNY   79  62  56 VRB7      29.95F
BLUEFIELD      CLOUDY    77  61  57 W8        29.99F
LOGAN CO APT*    N/A     79  70  73 S8G14     29.88F
$$

VAZ002-007-008-TNZ017-027-036-066-071-232100
...SOUTHWEST VIRGINIA/EAST TENNESSEE...

CITY           SKY/WX    TMP DP  RH WIND       PRES   REMARKS
WISE*          PTSUNNY   82  63  51 S3        29.99F
JONESVILLE*      N/A     91  66  43 SW6       29.92F HX  94
ABINGDON*      CLOUDY    86  72  62 SW8       29.95S HX  92
BRISTOL        CLOUDY    84  74  71 S9        29.92F HX  91
MORRISTOWN*    CLEAR     88  73  62 VRB7      29.89S HX  96
SEVIERVILLE*   MOCLDY    91  70  49 W6        29.87F HX  97
KNOXVILLE      CLOUDY    85  72  65 SW13      29.89F HX  91
LAFOLLETTE*    PTCLDY    91  72  52 VRB3      29.91F HX  98
OAK RIDGE      CLOUDY    87  72  60 VRB5      29.90F HX  93
CROSSVILLE     CLOUDY    83  74  74 SW3       29.95F
NASHVILLE      PTSUNNY   94  74  52 SW7       29.85F HX 104
$$

...KEY TO REMARKS...
VSB - VISIBILITY IN MILES
WCI - WIND CHILL INDEX
HX  - HEAT INDEX

$$




USA.gov is the U.S. government's official web portal to all federal, state and local government web resources and services.